sat.trackr.live / text

‹ back to catalog

KUIPER-00150

NORAD 65770 · 2025-217J

PAYLOAD ACTIVE UNKNOWN

§ Identity

Operator
Country
US
Launch date
2025-09-25
Launch site
AFETR
Launch vehicle
Mass (kg)
RCS (m²)

External: N2YO · Heavens-Above · Gunter

§ Orbital elements

Epoch: 2026-05-25T00:25:27.221088Z

Period
97.30 min
Inclination
51.9011°
Eccentricity
0.0001017
Mean motion
14.79937949 rev/d
Perigee alt
628.8 km
Apogee alt
630.2 km
Semi-major
7,007.7 km
B*
6.6720e-5
RAAN
73.0907°
Arg perigee
102.1272°
Mean anomaly
257.9804°
Rev number
3,607

§ Raw data

KUIPER-001501 65770U 25217J   26145.01767617  .00000287  00000+0  66720-4 0  99962 65770  51.9011  73.0907 0001017 102.1272 257.9804 14.79937949 36077

JSON: /api/v1/satellites/65770 · /tle

For live sub-satellite position, see the globe view (requires WebGL).

§ Visibility from observer

Set your observer location to see the next 7 days of passes ≥ 10°. The values pass through the URL so the page stays shareable.

No JS? Fill the form by hand. The geolocation button needs JavaScript.